Date String (YYYY-MM-DD hh:mm:ss) UTC,Instrument flags,Ambient pressure (hPa),Sample flow (lpm),Bypass flow (lpm),Sample temperature (°C),Ambient temperature (°C),ASC tube jacket temperature (°C),LED temperature (°C),Box temperature (°C),Sample RH (%),Span deviation,Mass concentration (μg/m³),Mass concentration (μg/m³),Mass concentration (μg/m³)
DateTimeUTC,F1_M11,P_M11,Q1_M11,Q2_M11,T1_M11,T2_M11,T3_M11,T4_M11,T5_M11,U1_M11,ZSPAN_M11,X0_M11,X2_M11,X1_M11
2023-02-25 06:00:00,,0826.5,5.00,0.00,22.1,20.4,00.0,30.9,23.6,07.2,0000.0,0001.87,0001.00,0000.81
2023-02-25 06:01:00,,0826.5,5.01,0.00,22.0,20.3,00.0,30.8,23.5,07.4,0000.0,0001.74,0000.98,0000.81
2023-02-25 06:02:00,,0826.5,5.00,0.00,22.0,20.2,00.0,30.8,23.4,07.5,0000.0,0001.75,0000.98,0000.81
2023-02-25 06:03:00,,0826.5,5.01,0.00,21.9,20.1,00.0,30.8,23.4,07.5,0000.0,0001.75,0000.98,0000.81
2023-02-25 06:04:00,,0826.5,5.01,0.00,21.9,20.2,00.0,30.8,23.3,07.5,0000.0,0001.78,0001.00,0000.82
2023-02-25 06:05:00,,0826.5,5.01,0.00,22.0,21.1,00.0,30.8,23.6,07.5,0000.0,0001.56,0000.98,0000.82
2023-02-25 06:06:00,,0826.5,4.96,0.00,22.1,22.2,00.0,30.7,23.9,07.6,0000.0,0001.49,0000.97,0000.82
2023-02-25 06:07:00,,0826.5,4.97,0.00,22.2,22.8,00.0,30.8,24.1,07.6,0000.0,0001.37,0000.96,0000.82
2023-02-25 06:08:00,,0826.5,5.00,0.00,22.2,22.3,00.0,30.8,24.1,07.5,0000.0,0001.35,0000.96,0000.82
2023-02-25 06:09:00,,0826.4,5.00,0.00,22.2,21.7,00.0,30.9,23.9,07.4,0000.0,0001.40,0000.98,0000.83
2023-02-25 06:10:00,,0826.3,5.01,0.00,22.2,21.3,00.0,30.9,23.9,07.3,0000.0,0001.38,0000.98,0000.84
2023-02-25 06:11:00,,0826.3,4.99,0.00,22.2,21.0,00.0,30.9,23.8,07.2,0000.0,0001.34,0000.97,0000.84
2023-02-25 06:12:00,,0826.2,4.98,0.00,22.1,20.7,00.0,30.9,23.8,07.2,0000.0,0001.38,0000.99,0000.84
2023-02-25 06:13:00,,0826.2,5.04,0.00,22.1,20.5,00.0,30.9,23.7,07.3,0000.0,0001.50,0001.02,0000.84
2023-02-25 06:14:00,,0826.2,5.00,0.00,22.0,20.3,00.0,30.8,23.5,07.4,0000.0,0001.60,0001.05,0000.85
2023-02-25 06:15:00,,0826.2,4.98,0.00,22.0,20.1,00.0,30.8,23.5,07.6,0000.0,0001.66,0001.08,0000.87
2023-02-25 06:16:00,,0826.2,4.99,0.00,22.0,20.1,00.0,30.8,23.5,07.6,0000.0,0001.76,0001.12,0000.89
2023-02-25 06:17:00,,0826.2,5.00,0.00,21.9,20.3,00.0,30.8,23.4,07.7,0000.0,0001.75,0001.13,0000.91
2023-02-25 06:18:00,,0826.2,4.99,0.00,22.0,21.4,00.0,30.8,23.8,07.7,0000.0,0001.83,0001.18,0000.94
2023-02-25 06:19:00,,0826.2,4.94,0.00,22.1,22.6,00.0,30.8,24.1,07.7,0000.0,0001.87,0001.23,0001.00
2023-02-25 06:20:00,,0826.2,5.01,0.00,22.3,23.4,00.0,30.8,24.3,07.7,0000.0,0001.84,0001.24,0001.02
2023-02-25 06:21:00,,0826.2,5.07,0.00,22.3,23.0,00.0,30.9,24.3,07.7,0000.0,0001.87,0001.26,0001.06
2023-02-25 06:22:00,,0826.2,5.02,0.00,22.3,22.3,00.0,30.9,24.2,07.7,0000.0,0002.50,0001.29,0001.09
2023-02-25 06:23:00,,0826.2,5.00,0.00,22.3,21.8,00.0,30.9,24.0,07.7,0000.0,0002.85,0001.33,0001.12
2023-02-25 06:24:00,,0826.2,4.99,0.00,22.3,21.3,00.0,30.9,24.0,07.7,0000.0,0002.86,0001.38,0001.17
2023-02-25 06:25:00,,0826.2,4.97,0.00,22.3,21.0,00.0,30.9,23.9,07.7,0000.0,0002.84,0001.42,0001.23
2023-02-25 06:26:00,,0826.2,5.00,0.00,22.2,20.7,00.0,30.9,23.8,07.8,0000.0,0002.83,0001.44,0001.26
2023-02-25 06:27:00,,0826.2,4.99,0.00,22.2,20.5,00.0,30.9,23.8,07.9,0000.0,0002.80,0001.44,0001.27
2023-02-25 06:28:00,,0826.2,4.99,0.00,22.1,20.4,00.0,30.9,23.7,07.9,0000.0,0002.85,0001.47,0001.28
2023-02-25 06:29:00,,0826.2,5.01,0.00,22.1,20.3,00.0,30.9,23.6,07.9,0000.0,0002.83,0001.45,0001.28
2023-02-25 06:30:00,,0826.2,5.01,0.00,22.1,20.2,00.0,30.9,23.5,07.9,0000.0,0002.77,0001.42,0001.27
2023-02-25 06:31:00,,0826.1,5.00,0.00,22.0,20.2,00.0,30.9,23.5,07.8,0000.0,0002.83,0001.44,0001.27
2023-02-25 06:32:00,,0826.2,5.01,0.00,22.0,20.3,00.0,30.9,23.5,07.8,0000.0,0002.89,0001.46,0001.27
2023-02-25 06:33:00,,0826.1,5.03,0.00,22.1,21.5,00.0,30.8,23.9,07.7,0000.0,0002.36,0001.45,0001.27
2023-02-25 06:34:00,,0826.2,5.01,0.00,22.2,22.6,00.0,30.8,24.2,07.7,0000.0,0001.89,0001.41,0001.27
2023-02-25 06:35:00,,0826.2,5.00,0.00,22.3,22.8,00.0,30.9,24.2,07.7,0000.0,0002.46,0001.40,0001.27
2023-02-25 06:36:00,,0826.0,4.99,0.00,22.3,22.2,00.0,30.9,24.2,07.6,0000.0,0002.44,0001.37,0001.24
2023-02-25 06:37:00,,0826.0,5.01,0.00,22.3,21.7,00.0,30.9,24.0,07.7,0000.0,0002.43,0001.35,0001.21
2023-02-25 06:38:00,,0826.1,4.98,0.00,22.3,21.3,00.0,30.9,24.0,07.7,0000.0,0002.48,0001.36,0001.20
2023-02-25 06:39:00,,0826.1,5.01,0.00,22.2,21.0,00.0,30.9,23.9,07.8,0000.0,0002.55,0001.37,0001.19
2023-02-25 06:40:00,,0826.1,5.03,0.00,22.2,20.7,00.0,30.9,23.8,07.8,0000.0,0002.56,0001.38,0001.18
2023-02-25 06:41:00,,0826.0,5.00,0.00,22.2,20.5,00.0,30.9,23.7,07.7,0000.0,0002.58,0001.38,0001.19
2023-02-25 06:42:00,,0826.1,4.99,0.00,22.1,20.3,00.0,30.9,23.7,07.7,0000.0,0002.53,0001.37,0001.19
2023-02-25 06:43:00,,0826.0,5.01,0.00,22.1,20.2,00.0,30.9,23.7,07.7,0000.0,0002.49,0001.38,0001.21
2023-02-25 06:44:00,,0826.0,5.01,0.00,22.1,20.1,00.0,30.9,23.6,07.7,0000.0,0002.54,0001.42,0001.24
2023-02-25 06:45:00,,0826.0,5.00,0.00,22.0,20.5,00.0,30.9,23.7,07.8,0000.0,0002.66,0001.50,0001.28
2023-02-25 06:46:00,,0825.9,5.02,0.00,22.1,21.8,00.0,30.8,24.0,08.0,0000.0,0002.09,0001.53,0001.28
2023-02-25 06:47:00,,0825.9,4.93,0.00,22.3,22.8,00.0,30.8,24.2,07.9,0000.0,0002.19,0001.54,0001.27
2023-02-25 06:48:00,,0825.9,5.01,0.00,22.4,22.7,00.0,30.9,24.3,07.7,0000.0,0002.27,0001.57,0001.29
2023-02-25 06:49:00,,0825.9,5.03,0.00,22.3,22.1,00.0,30.9,24.2,07.6,0000.0,0002.34,0001.60,0001.30
2023-02-25 06:50:00,,0825.9,4.99,0.00,22.3,21.6,00.0,31.0,24.0,07.6,0000.0,0002.30,0001.61,0001.31
2023-02-25 06:51:00,,0825.8,5.04,0.00,22.3,21.2,00.0,31.0,23.9,07.6,0000.0,0002.39,0001.68,0001.38
2023-02-25 06:52:00,,0825.8,5.02,0.00,22.3,21.0,00.0,31.0,23.9,07.6,0000.0,0002.58,0001.80,0001.48
2023-02-25 06:53:00,,0825.9,4.99,0.00,22.2,20.7,00.0,31.0,23.8,07.7,0000.0,0003.10,0001.91,0001.57
2023-02-25 06:54:00,,0825.9,4.99,0.00,22.2,20.5,00.0,31.0,23.7,07.7,0000.0,0003.18,0001.93,0001.57
2023-02-25 06:55:00,,0826.0,4.99,0.00,22.1,20.4,00.0,31.0,23.7,07.7,0000.0,0003.31,0001.99,0001.60
2023-02-25 06:56:00,,0825.9,5.00,0.00,22.1,20.3,00.0,30.9,23.6,07.7,0000.0,0003.50,0002.05,0001.63
2023-02-25 06:57:00,,0825.9,5.00,0.00,22.1,20.2,00.0,30.9,23.6,07.9,0000.0,0003.63,0002.06,0001.66
2023-02-25 06:58:00,,0826.0,5.01,0.00,22.0,20.2,00.0,30.9,23.5,08.0,0000.0,0003.62,0002.08,0001.68
2023-02-25 06:59:00,,0826.0,5.01,0.00,22.1,21.3,00.0,30.8,23.8,07.8,0000.0,0003.60,0002.10,0001.70
